Hutchinson, MN

12:30 PM CDT on September 19, 2017 (GMT -0500)
Hutchinson Municipal-Butler

Weather History for KHCD - October, 2012

Change the Weather History Date:

Sunday, October 21, 2012

  Actual Average Record
Temperature  
Mean Temperature 53 °F -  
Max Temperature 64 °F 56 °F 78 °F (1978)
Min Temperature 42 °F 35 °F 22 °F (1967)
Degree Days  
Heating Degree Days 12    
Growing Degree Days 3 (Base 50)    
Moisture  
Dew Point 47 °F    
Average Humidity 84    
Maximum Humidity 98    
Minimum Humidity 63    
Precipitation  
Precipitation 0.00 in - - ()
Sea Level Pressure  
Sea Level Pressure 29.80 in    
Wind  
Wind Speed 8 mph (SE)    
Max Wind Speed 14 mph    
Max Gust Speed 18 mph    
Visibility 9 miles    
Events      
Averages and records for this station are not official NWS values.
T = Trace of Precipitation, MM = Missing Value Source: NWS Daily Summary

Daily Weather History Graph

Daily Weather History Graph

Search for Another Location

Airport or City:

Trip Planner

Search our weather history database for the weather conditions in past years. The results will help you decide how hot, cold, wet, or windy it might be!

Date:

Astronomy

Oct. 21, 2012 Rise Set
Actual Time 7:41 AM CDT 6:21 PM CDT
Civil Twilight 7:11 AM CDT 6:51 PM CDT
Nautical Twilight 6:37 AM CDT 7:25 PM CDT
Astronomical Twilight 6:03 AM CDT 7:59 PM CDT
Moon 2:08 PM CDT (10/21) No Moon Set
Length of Visible Light 11h 39m
Length of Day
10h 40m
Waxing Crescent, 45% of the Moon is Illuminated
Oct 21
Waxing Crescent
Oct 21
First Quarter
Oct 29
Full
Nov 6
Last Quarter
Nov 13
New

Hourly Weather History & Observations

Time (CDT) Temp. Windchill Dew Point Humidity Pressure Visibility Wind Dir Wind Speed Gust Speed Precip Events Conditions
12:29 AM 46.6 °F - 45.1 °F 95% 29.78 in 10.0 mi SSE 6.9 mph - N/A   Clear
12:49 AM 45.9 °F 41.7 °F 44.6 °F 95% 29.78 in 7.0 mi SE 8.1 mph - N/A   Clear
1:09 AM 44.1 °F 40.8 °F 43.0 °F 96% 29.78 in 7.0 mi SE 5.8 mph - N/A   Clear
1:28 AM 44.1 °F 40.8 °F 43.3 °F 97% 29.78 in 7.0 mi SE 5.8 mph - N/A   Clear
1:49 AM 44.1 °F 40.8 °F 43.3 °F 97% 29.78 in 7.0 mi SE 5.8 mph - N/A   Clear
2:08 AM 43.7 °F 40.3 °F 42.8 °F 97% 29.78 in 7.0 mi ESE 5.8 mph - N/A   Clear
2:29 AM 43.9 °F 39.9 °F 43.2 °F 97% 29.79 in 7.0 mi ESE 6.9 mph - N/A   Clear
2:48 AM 43.0 °F 39.5 °F 42.3 °F 97% 29.79 in 7.0 mi ESE 5.8 mph - N/A   Clear
3:09 AM 43.0 °F 38.8 °F 42.3 °F 97% 29.79 in 7.0 mi East 6.9 mph - N/A   Clear
3:28 AM 43.0 °F 38.2 °F 42.3 °F 97% 29.79 in 7.0 mi East 8.1 mph - N/A   Clear
3:49 AM 43.0 °F 37.7 °F 42.3 °F 97% 29.79 in 7.0 mi ESE 9.2 mph - N/A   Clear
4:09 AM 43.0 °F 37.7 °F 42.3 °F 97% 29.78 in 7.0 mi ESE 9.2 mph - N/A   Clear
4:29 AM 43.0 °F 37.7 °F 42.3 °F 97% 29.77 in 7.0 mi ESE 9.2 mph - N/A   Clear
4:48 AM 42.8 °F 38.6 °F 42.1 °F 97% 29.78 in 7.0 mi ESE 6.9 mph - N/A   Clear
5:09 AM 42.6 °F 37.2 °F 41.9 °F 97% 29.78 in 7.0 mi East 9.2 mph - N/A   Clear
5:28 AM 42.8 °F 38.0 °F 42.3 °F 98% 29.78 in 7.0 mi East 8.1 mph - N/A   Clear
5:48 AM 42.8 °F 37.5 °F 42.3 °F 98% 29.78 in 7.0 mi ESE 9.2 mph - N/A   Clear
6:08 AM 42.8 °F 37.5 °F 42.1 °F 97% 29.77 in 7.0 mi ESE 9.2 mph - N/A   Clear
6:29 AM 42.8 °F 37.5 °F 42.3 °F 98% 29.77 in 7.0 mi East 9.2 mph - N/A   Clear
6:49 AM 42.8 °F 36.6 °F 42.1 °F 97% 29.76 in 7.0 mi East 11.5 mph 16.1 mph N/A   Clear
7:09 AM 43.7 °F 39.7 °F 43.2 °F 98% 29.78 in 7.0 mi ESE 6.9 mph - N/A   Clear
7:29 AM 42.8 °F 38.0 °F 42.1 °F 97% 29.76 in 7.0 mi East 8.1 mph - N/A   Clear
7:49 AM 43.0 °F 36.4 °F 42.3 °F 97% 29.76 in 7.0 mi East 12.7 mph - N/A   Clear
8:09 AM 42.8 °F 37.0 °F 41.9 °F 97% 29.76 in 7.0 mi ESE 10.4 mph - N/A   Clear
8:28 AM 44.1 °F 38.6 °F 43.3 °F 97% 29.76 in 7.0 mi ESE 10.4 mph - N/A   Clear
8:48 AM 46.6 °F - 45.1 °F 95% 29.76 in 10.0 mi ESE 12.7 mph - N/A   Clear
9:09 AM 49.1 °F - 47.1 °F 93% 29.76 in 10.0 mi ESE 11.5 mph - N/A   Clear
9:29 AM 49.1 °F - 46.4 °F 90% 29.75 in 10.0 mi ESE 11.5 mph 17.3 mph N/A   Clear
9:49 AM 50.7 °F - 46.8 °F 86% 29.75 in 10.0 mi ESE 13.8 mph 18.4 mph N/A   Clear
10:09 AM 53.2 °F - 47.8 °F 82% 29.75 in 10.0 mi SE 12.7 mph 18.4 mph N/A   Clear
10:29 AM 54.1 °F - 47.3 °F 78% 29.77 in 10.0 mi SE 10.4 mph 16.1 mph N/A   Clear
10:49 AM 56.7 °F - 48.7 °F 75% 29.77 in 10.0 mi SE 9.2 mph 16.1 mph N/A   Clear
10:57 AM 56.7 °F - 47.8 °F 72% 29.77 in 10.0 mi SE 11.5 mph - N/A   Clear
11:30 AM 59.0 °F - 48.2 °F 67% 29.77 in 10.0 mi SSE 9.2 mph - N/A   Clear
11:50 AM 59.0 °F - 48.2 °F 67% 29.77 in 10.0 mi SSE 9.2 mph - N/A   Clear
12:10 PM 60.8 °F - 50.0 °F 68% 29.76 in 10.0 mi SSE 9.2 mph 18.4 mph N/A   Clear
12:30 PM 60.8 °F - 50.0 °F 68% 29.76 in 10.0 mi South 9.2 mph 16.1 mph N/A   Clear
12:50 PM 62.6 °F - 50.0 °F 63% 29.77 in 10.0 mi South 10.4 mph - N/A   Clear
1:10 PM 60.8 °F - 50.0 °F 68% 29.76 in 10.0 mi South 10.4 mph 16.1 mph N/A   Clear
1:30 PM 62.6 °F - 51.8 °F 68% 29.76 in 10.0 mi South 6.9 mph - N/A   Clear
1:49 PM 62.2 °F - 51.1 °F 67% 29.76 in 10.0 mi SSW 8.1 mph - N/A   Clear
2:09 PM 62.1 °F - 50.9 °F 67% 29.76 in 10.0 mi SSW 6.9 mph - N/A   Clear
2:29 PM 64.4 °F - 52.2 °F 64% 29.77 in 10.0 mi South 6.9 mph - N/A   Clear
2:49 PM 63.5 °F - 52.0 °F 66% 29.77 in 10.0 mi SW 4.6 mph - N/A   Scattered Clouds
3:09 PM 64.4 °F - 52.3 °F 65% 29.78 in 10.0 mi SW 9.2 mph - N/A   Scattered Clouds
3:29 PM 64.4 °F - 51.6 °F 63% 29.78 in 10.0 mi West 8.1 mph - N/A   Clear
3:49 PM 64.4 °F - 51.6 °F 63% 29.78 in 10.0 mi SW 6.9 mph - N/A   Clear
4:09 PM 64.4 °F - 52.2 °F 64% 29.79 in 10.0 mi West 9.2 mph - N/A   Clear
4:29 PM 62.2 °F - 51.1 °F 67% 29.80 in 10.0 mi West 5.8 mph - N/A   Clear
4:48 PM 62.1 °F - 51.1 °F 67% 29.80 in 10.0 mi WNW 8.1 mph - N/A   Clear
5:09 PM 60.4 °F - 50.9 °F 71% 29.81 in 10.0 mi WNW 5.8 mph - N/A   Clear
5:26 PM 61.5 °F - 51.4 °F 69% 29.81 in 10.0 mi West 6.9 mph - N/A   Clear
5:49 PM 59.2 °F - 50.0 °F 72% 29.82 in 10.0 mi WNW 8.1 mph - N/A   Clear
6:08 PM 59.2 °F - 50.7 °F 74% 29.83 in 10.0 mi WNW 6.9 mph - N/A   Clear
6:29 PM 56.7 °F - 49.3 °F 76% 29.84 in 10.0 mi WNW 6.9 mph - N/A   Clear
6:49 PM 54.9 °F - 48.7 °F 80% 29.84 in 10.0 mi WNW 6.9 mph - N/A   Clear
7:09 PM 54.1 °F - 49.3 °F 84% 29.85 in 10.0 mi NW 5.8 mph - N/A   Clear
7:28 PM 51.8 °F - 47.7 °F 86% 29.86 in 10.0 mi NW 4.6 mph - N/A   Clear
7:49 PM 49.1 °F - 46.2 °F 90% 29.87 in 10.0 mi NW 5.8 mph - N/A   Clear
8:09 PM 49.1 °F - 46.4 °F 90% 29.88 in 10.0 mi NW 6.9 mph - N/A   Clear
8:29 PM 49.1 °F - 46.4 °F 90% 29.89 in 10.0 mi NW 5.8 mph - N/A   Clear
8:48 PM 49.1 °F - 46.6 °F 91% 29.89 in 10.0 mi NNW 6.9 mph - N/A   Clear
9:08 PM 49.1 °F - 46.8 °F 92% 29.89 in 10.0 mi NNW 9.2 mph - N/A   Clear
9:29 PM 51.8 °F - 48.0 °F 87% 29.90 in 10.0 mi NNW 10.4 mph - N/A   Clear
9:48 PM 51.8 °F - 47.7 °F 86% 29.90 in 10.0 mi NNW 8.1 mph - N/A   Clear
10:09 PM 51.8 °F - 47.7 °F 86% 29.90 in 10.0 mi North 6.9 mph - N/A   Clear
10:29 PM 50.4 °F - 46.6 °F 87% 29.90 in 10.0 mi North 6.9 mph - N/A   Clear
10:49 PM 49.1 °F - 45.7 °F 88% 29.91 in 10.0 mi NNW 6.9 mph - N/A   Clear
11:09 PM 49.1 °F - 46.0 °F 89% 29.91 in 10.0 mi NNW 5.8 mph - N/A   Clear
11:29 PM 49.1 °F - 46.8 °F 92% 29.90 in 10.0 mi NNW 3.5 mph - N/A   Clear
11:48 PM 49.1 °F - 46.9 °F 92% 29.90 in 10.0 mi North 3.5 mph - N/A   Clear